Terminal Aerodrome Forecast
Issued by NWS Greer, SC

Home | Current Version | Previous Version | Text Only | Print | Product List | Glossary On
Versions: 1 2 3 4 5 6 7 8 9 10 11 12 13 14 15 16 17 18 19 20 21 22 23 24 25 26 27 28 29 30 31 32 33 34 35 36 37 38 39 40 41 42
000
FTUS42 KGSP 210537
TAFAVL
TAF
KAVL 210537Z 2106/2206 34011KT P6SM FEW045 BKN060
      TEMPO 2106/2110 34012G22KT
     FM211600 32011G19KT P6SM FEW250
     FM220000 28007KT P6SM FEW250
     FM220300 24003KT P6SM FEW250=

USA.gov is the U.S. government's official web portal to all federal, state and local government web resources and services.